Location: Sternwarte ZA, Rosenfeld-Brittheim
(48.2889°N, 8.6789°E)
Time: 09:08:07
(UTC+02:00)

ISS - Pass Details

Date: 21 May 2021
Orbit: 417 x 422 km, 51.6° (Epoch: 18 June)

Event Time Altitude Azimuth Distance (km) Brightness Sun altitude
Rises 23:43:35 0° 287° (WNW) 2,369 0.7 -17.9°
Reaches altitude 10° 23:45:44 10° 292° (WNW) 1,505 -0.3 -18.0°
Maximum altitude 23:49:02 52° 10° (N) 530 -3.0 -18.3°
Enters shadow 23:51:00 22° 80° (E) 988 -2.0 -18.4°
